Location: Mahannah Oil Field
(37.4664°N, 96.6003°W)
Time: 14:31:02
(UTC+00:00)

A-11 Canister half - Pass Details

Date: 27 January 2021
Orbit: 1525 x 1684 km, 47.3° (Epoch: 05 March)

Event Time Altitude Azimuth Distance (km) Brightness Sun altitude
Rises 03:55:11 0° 298° (WNW) 4,789 12.2 -49.5°
Reaches altitude 10° 03:58:33 10° 291° (WNW) 3,824 11.5 -50.2°
Enters shadow 04:04:26 31° 258° (WSW) 2,550 10.3 -51.3°
